Flag for Germany Weather past 2 weeks in Rheine, North Rhine-Westphalia, Germany

Now
77 °F

Passing clouds.


Feels Like: 78 °F
Forecast: 60 / 87 °F
Wind: 7 mph from North

Location: Rheine-Bentlage

Current Time: Jun 30, 2015 at 4:44:59 PM

Latest Report: Jun 30, 2015 at 3:20 PM


Visibility: N/A

Pressure: 30.18 "Hg

Humidity: 36%

Dew point: 48 °F

Location of RheineLocation

Historic Weather in Rheine — Graph

°F

Rheine temperature yesterday

Maximum temperature yesterday: 75 °F (at 3:20 PM)
Minimum temperature yesterday: 59 °F (at 5:20 AM)
Average temperature yesterday: 69 °F

Past Weeks' High & Low Weather Summary

 TemperatureHumidityPressure
High77 °F (Jun 26, 3:20 PM)100% (Jun 16, 6:20 AM)30.30 "Hg (Jun 16, 6:20 AM)
Low39 °F (Jun 16, 5:20 AM)34% (Jun 15, 3:20 PM)29.68 "Hg (Jun 22, 7:20 PM)
Average60 °F72%30.07 "Hg
* Reported Jun 15 2:20 PM — Jun 30 2:20 PM, Rheine, Weather by CustomWeather, © 2015

Note: Actual official high and low records may vary slightly from our data, if they occured in-between our weather recording intervals... More about our weather records

Advertising

Rheine weather history for previous 24 hours

 ConditionsComfort  
Time TempWeatherWind HumidityBarometerVisibility
2:20 PM
Tue, Jun 30
77 °FPassing clouds.5 mph36%30.18 "HgN/A
1:20 PM75 °FPassing clouds.6 mph36%30.18 "HgN/A
12:20 PM73 °FPassing clouds.6 mph41%30.21 "HgN/A
11:20 AM72 °FPassing clouds.3 mph41%30.21 "HgN/A
10:20 AM70 °FPassing clouds.5 mph50%30.21 "HgN/A
9:20 AM66 °FPassing clouds.6 mph60%30.21 "HgN/A
8:20 AM64 °FPassing clouds.3 mph64%30.21 "HgN/A
7:20 AM59 °FPassing clouds.No wind82%30.21 "HgN/A
6:20 AM54 °FFog.No wind94%30.21 "HgN/A
5:20 AM52 °FFog.No wind94%30.21 "HgN/A
4:20 AM54 °FCool.No wind94%30.21 "HgN/A
3:20 AM54 °FCool.No wind94%30.21 "HgN/A
2:20 AM57 °FCool.No wind82%30.21 "HgN/A
1:20 AM59 °FCool.No wind77%30.21 "HgN/A
12:20 AM63 °FMild.3 mph68%30.21 "HgN/A
11:20 PM
Mon, Jun 29
64 °FMild.5 mph68%30.21 "HgN/A
10:20 PM66 °FMild.3 mph64%30.21 "HgN/A
9:20 PM68 °FMild.6 mph64%30.18 "HgN/A
8:20 PM72 °FMild.7 mph61%30.18 "HgN/A
7:20 PM73 °FMild.10 mph61%30.15 "HgN/A
6:20 PM75 °FMild.7 mph47%30.15 "HgN/A
5:20 PM75 °FMild.8 mph44%30.15 "HgN/A
4:20 PM75 °FMild.9 mph44%30.15 "HgN/A
Weather by CustomWeather, © 2015

See weather overviewHow to use our weather pages